Time,TemperatureF,DewpointF,PressureIn,WindDirection,WindDirectionDegrees,WindSpeedMPH,WindSpeedGustMPH,Humidity,HourlyPrecipIn,Conditions,Clouds,dailyrainin,SoftwareType,DateUTC
2013-03-21 00:01:00,52.0,43.3,30.00,NNE,28,0.0,0.0,72,0.00,,,0.00,WeatherCatV1.13B119,2013-03-21 05:01:00,
2013-03-21 00:06:00,52.0,43.6,30.00,NNE,28,0.0,0.0,73,0.00,,,0.00,WeatherCatV1.13B119,2013-03-21 05:06:00,
2013-03-21 00:11:00,52.0,44.0,30.00,NNE,28,0.0,0.0,74,0.00,,,0.00,WeatherCatV1.13B119,2013-03-21 05:11:00,
2013-03-21 00:16:00,52.1,44.1,30.00,NNE,28,0.0,0.0,74,0.00,,,0.00,WeatherCatV1.13B119,2013-03-21 05:16:00,
2013-03-21 00:21:00,52.1,43.4,30.00,NNE,28,0.0,0.0,72,0.00,,,0.00,WeatherCatV1.13B119,2013-03-21 05:21:00,
2013-03-21 00:26:00,52.0,44.0,30.00,NNE,28,0.0,0.0,74,0.00,,,0.00,WeatherCatV1.13B119,2013-03-21 05:26:00,
2013-03-21 00:31:00,52.0,44.0,30.00,NNE,28,0.0,0.0,74,0.00,,,0.00,WeatherCatV1.13B119,2013-03-21 05:31:00,
2013-03-21 00:36:00,52.1,44.1,30.00,NNE,28,0.0,0.0,74,0.00,,,0.00,WeatherCatV1.13B119,2013-03-21 05:36:00,
2013-03-21 00:41:00,52.1,44.1,30.00,NNE,28,0.0,0.0,74,0.00,,,0.00,WeatherCatV1.13B119,2013-03-21 05:41:00,
2013-03-21 00:46:00,52.0,44.3,29.99,NNE,28,0.0,0.0,75,0.00,,,0.00,WeatherCatV1.13B119,2013-03-21 05:46:00,
2013-03-21 00:51:00,52.1,44.4,29.99,NNE,28,0.0,0.0,75,0.00,,,0.00,WeatherCatV1.13B119,2013-03-21 05:51:00,
2013-03-21 00:56:00,52.1,44.4,29.99,NNE,28,0.0,0.0,75,0.00,,,0.00,WeatherCatV1.13B119,2013-03-21 05:56:00,
2013-03-21 01:01:00,52.1,44.1,29.99,NNE,28,0.0,0.0,74,0.00,,,0.00,WeatherCatV1.13B119,2013-03-21 06:01:00,
2013-03-21 01:06:00,51.9,44.2,29.99,NNE,28,0.0,0.0,75,0.00,,,0.00,WeatherCatV1.13B119,2013-03-21 06:06:00,
2013-03-21 01:11:00,51.7,43.3,29.98,NNE,28,0.0,0.0,73,0.00,,,0.00,WeatherCatV1.13B119,2013-03-21 06:11:00,
2013-03-21 01:16:00,51.7,44.4,29.97,NNE,28,0.0,0.0,76,0.00,,,0.00,WeatherCatV1.13B119,2013-03-21 06:16:00,
2013-03-21 01:21:00,51.6,43.9,29.98,NNE,28,0.0,0.0,75,0.00,,,0.00,WeatherCatV1.13B119,2013-03-21 06:21:00,
2013-03-21 01:26:00,51.7,44.4,29.98,NNE,28,0.0,0.0,76,0.00,,,0.00,WeatherCatV1.13B119,2013-03-21 06:26:00,
2013-03-21 01:31:00,51.8,44.5,29.97,NNE,28,0.0,0.0,76,0.00,,,0.00,WeatherCatV1.13B119,2013-03-21 06:31:00,
2013-03-21 01:36:00,51.9,44.6,29.97,NNE,28,0.0,0.0,76,0.00,,,0.00,WeatherCatV1.13B119,2013-03-21 06:36:00,
2013-03-21 01:41:00,52.1,44.8,29.96,NNE,28,0.0,0.0,76,0.00,,,0.00,WeatherCatV1.13B119,2013-03-21 06:41:00,
2013-03-21 01:46:00,52.4,45.4,29.96,NNE,28,0.0,0.0,77,0.00,,,0.00,WeatherCatV1.13B119,2013-03-21 06:46:00,
2013-03-21 01:51:00,52.6,44.9,29.97,NNE,28,0.0,0.0,75,0.00,,,0.00,WeatherCatV1.13B119,2013-03-21 06:51:00,
2013-03-21 01:56:00,52.9,45.2,29.96,NNE,28,0.0,0.0,75,0.00,,,0.00,WeatherCatV1.13B119,2013-03-21 06:56:00,
2013-03-21 02:01:00,53.1,45.7,29.96,NNE,28,0.0,0.0,76,0.00,,,0.00,WeatherCatV1.13B119,2013-03-21 07:01:00,
2013-03-21 02:06:00,53.1,46.1,29.97,NNE,28,0.0,0.0,77,0.00,,,0.00,WeatherCatV1.13B119,2013-03-21 07:06:00,
2013-03-21 02:11:00,53.3,46.6,29.96,NNE,28,0.0,0.0,78,0.00,,,0.00,WeatherCatV1.13B119,2013-03-21 07:11:00,
2013-03-21 02:16:00,53.4,46.7,29.96,NNE,28,0.0,0.0,78,0.00,,,0.00,WeatherCatV1.13B119,2013-03-21 07:16:00,
2013-03-21 02:21:00,53.6,45.9,29.96,NNE,30,0.0,0.0,75,0.00,,,0.00,WeatherCatV1.13B119,2013-03-21 07:21:00,
2013-03-21 02:26:00,53.7,45.3,29.95,NNE,30,0.0,0.0,73,0.00,,,0.00,WeatherCatV1.13B119,2013-03-21 07:26:00,
2013-03-21 02:31:00,53.4,45.3,29.95,NNE,30,0.0,0.0,74,0.00,,,0.00,WeatherCatV1.13B119,2013-03-21 07:31:00,
2013-03-21 02:36:00,53.2,44.8,29.95,NNE,30,0.0,0.0,73,0.00,,,0.00,WeatherCatV1.13B119,2013-03-21 07:36:00,
2013-03-21 02:41:00,53.0,44.9,29.95,NNE,30,0.0,0.0,74,0.00,,,0.00,WeatherCatV1.13B119,2013-03-21 07:41:00,
2013-03-21 02:46:00,53.1,45.0,29.95,NNE,30,0.0,0.0,74,0.00,,,0.00,WeatherCatV1.13B119,2013-03-21 07:46:00,
2013-03-21 02:51:00,53.2,46.2,29.95,NNE,30,0.0,0.0,77,0.00,,,0.00,WeatherCatV1.13B119,2013-03-21 07:51:00,
2013-03-21 02:56:00,53.3,45.6,29.95,NNE,30,0.0,0.0,75,0.00,,,0.00,WeatherCatV1.13B119,2013-03-21 07:56:00,
2013-03-21 03:01:00,53.3,45.2,29.95,NNE,30,0.0,0.0,74,0.00,,,0.00,WeatherCatV1.13B119,2013-03-21 08:01:00,
2013-03-21 03:06:00,53.3,44.9,29.95,NNE,30,0.0,0.0,73,0.00,,,0.00,WeatherCatV1.13B119,2013-03-21 08:06:00,
2013-03-21 03:11:00,53.3,44.5,29.94,NNE,30,0.0,0.0,72,0.00,,,0.00,WeatherCatV1.13B119,2013-03-21 08:11:00,
2013-03-21 03:16:00,53.4,45.0,29.95,NNE,30,0.0,0.0,73,0.00,,,0.00,WeatherCatV1.13B119,2013-03-21 08:16:00,
2013-03-21 03:21:00,53.4,45.0,29.94,NNE,30,0.0,0.0,73,0.00,,,0.00,WeatherCatV1.13B119,2013-03-21 08:21:00,
2013-03-21 03:26:00,53.3,44.9,29.94,NNE,30,0.0,0.0,73,0.00,,,0.00,WeatherCatV1.13B119,2013-03-21 08:26:00,
2013-03-21 03:31:00,53.4,45.3,29.94,NNE,30,0.0,0.0,74,0.00,,,0.00,WeatherCatV1.13B119,2013-03-21 08:31:00,
2013-03-21 03:36:00,53.4,45.3,29.93,NNE,30,0.0,0.0,74,0.00,,,0.00,WeatherCatV1.13B119,2013-03-21 08:36:00,
2013-03-21 03:41:00,53.4,44.6,29.93,NNE,30,0.0,0.0,72,0.00,,,0.00,WeatherCatV1.13B119,2013-03-21 08:41:00,
2013-03-21 03:46:00,53.2,44.8,29.93,NNE,30,0.0,0.0,73,0.00,,,0.00,WeatherCatV1.13B119,2013-03-21 08:46:00,
2013-03-21 03:51:00,53.1,44.7,29.92,NNE,30,0.0,0.0,73,0.00,,,0.00,WeatherCatV1.13B119,2013-03-21 08:51:00,
2013-03-21 03:56:00,53.0,44.6,29.92,NNE,30,0.0,0.0,73,0.00,,,0.00,WeatherCatV1.13B119,2013-03-21 08:56:00,
2013-03-21 04:01:00,52.9,45.5,29.92,NNE,30,0.0,0.0,76,0.00,,,0.00,WeatherCatV1.13B119,2013-03-21 09:01:00,
2013-03-21 04:06:00,52.7,45.0,29.91,NNE,30,0.0,0.0,75,0.00,,,0.00,WeatherCatV1.13B119,2013-03-21 09:06:00,
2013-03-21 04:11:00,53.3,44.1,29.91,ESE,103,1.0,1.0,71,0.00,,,0.00,WeatherCatV1.13B119,2013-03-21 09:11:00,
2013-03-21 04:16:00,53.6,44.1,29.91,ESE,103,0.0,0.0,70,0.00,,,0.00,WeatherCatV1.13B119,2013-03-21 09:16:00,
2013-03-21 04:21:00,53.3,43.8,29.91,ESE,103,0.0,1.0,70,0.00,,,0.00,WeatherCatV1.13B119,2013-03-21 09:21:00,
2013-03-21 04:26:00,52.8,43.7,29.91,North,8,0.0,0.0,71,0.00,,,0.00,WeatherCatV1.13B119,2013-03-21 09:26:00,
2013-03-21 04:31:00,52.5,44.1,29.91,North,8,0.0,0.0,73,0.00,,,0.00,WeatherCatV1.13B119,2013-03-21 09:31:00,
2013-03-21 04:36:00,52.4,43.6,29.90,North,7,1.0,1.0,72,0.00,,,0.00,WeatherCatV1.13B119,2013-03-21 09:36:00,
2013-03-21 04:41:00,52.1,43.4,29.90,NNW,327,0.0,1.0,72,0.00,,,0.00,WeatherCatV1.13B119,2013-03-21 09:41:00,
2013-03-21 04:46:00,52.4,43.6,29.90,South,176,0.0,0.0,72,0.00,,,0.00,WeatherCatV1.13B119,2013-03-21 09:46:00,
2013-03-21 04:51:00,52.5,43.7,29.90,NW,313,0.0,1.0,72,0.00,,,0.00,WeatherCatV1.13B119,2013-03-21 09:51:00,
2013-03-21 04:56:00,52.3,43.9,29.90,NW,313,0.0,0.0,73,0.00,,,0.00,WeatherCatV1.13B119,2013-03-21 09:56:00,
2013-03-21 05:01:00,52.2,44.2,29.90,NW,313,0.0,0.0,74,0.00,,,0.00,WeatherCatV1.13B119,2013-03-21 10:01:00,
2013-03-21 05:06:00,52.5,44.8,29.90,NW,313,0.0,0.0,75,0.00,,,0.00,WeatherCatV1.13B119,2013-03-21 10:06:00,
2013-03-21 05:11:00,52.6,44.9,29.89,NW,313,0.0,0.0,75,0.00,,,0.00,WeatherCatV1.13B119,2013-03-21 10:11:00,
2013-03-21 05:16:00,52.6,44.9,29.89,NW,313,0.0,0.0,75,0.00,,,0.00,WeatherCatV1.13B119,2013-03-21 10:16:00,
2013-03-21 05:21:00,52.8,44.7,29.89,NW,313,0.0,0.0,74,0.00,,,0.00,WeatherCatV1.13B119,2013-03-21 10:21:00,
2013-03-21 05:26:00,53.0,44.9,29.89,ESE,117,0.0,1.0,74,0.00,,,0.00,WeatherCatV1.13B119,2013-03-21 10:26:00,
2013-03-21 05:31:00,53.3,45.2,29.88,ESE,117,0.0,0.0,74,0.00,,,0.00,WeatherCatV1.13B119,2013-03-21 10:31:00,
2013-03-21 05:36:00,53.5,45.1,29.88,ESE,109,0.0,1.0,73,0.00,,,0.00,WeatherCatV1.13B119,2013-03-21 10:36:00,
2013-03-21 05:41:00,53.8,45.3,29.88,West,262,1.0,1.0,73,0.00,,,0.00,WeatherCatV1.13B119,2013-03-21 10:41:00,
2013-03-21 05:46:00,54.0,45.2,29.88,SE,143,1.0,1.0,72,0.00,,,0.00,WeatherCatV1.13B119,2013-03-21 10:46:00,
2013-03-21 05:51:00,54.1,44.9,29.88,West,259,0.0,0.0,71,0.00,,,0.00,WeatherCatV1.13B119,2013-03-21 10:51:00,
2013-03-21 05:56:00,54.2,44.6,29.88,East,92,0.0,2.0,70,0.00,,,0.00,WeatherCatV1.13B119,2013-03-21 10:56:00,
2013-03-21 06:01:00,54.5,44.5,29.88,WSW,238,0.0,1.0,69,0.00,,,0.00,WeatherCatV1.13B119,2013-03-21 11:01:00,
2013-03-21 06:06:00,54.6,44.3,29.88,ESE,112,1.0,1.0,68,0.00,,,0.00,WeatherCatV1.13B119,2013-03-21 11:06:00,
2013-03-21 06:11:00,54.9,44.1,29.88,SW,235,0.0,0.0,67,0.00,,,0.00,WeatherCatV1.13B119,2013-03-21 11:11:00,
2013-03-21 06:16:00,55.0,43.5,29.88,SE,129,0.0,1.0,65,0.00,,,0.00,WeatherCatV1.13B119,2013-03-21 11:16:00,
2013-03-21 06:21:00,55.6,43.2,29.87,SE,138,1.0,3.0,63,0.00,,,0.00,WeatherCatV1.13B119,2013-03-21 11:21:00,
2013-03-21 06:26:00,56.1,43.3,29.88,SSE,150,0.0,2.0,62,0.00,,,0.00,WeatherCatV1.13B119,2013-03-21 11:26:00,
2013-03-21 06:31:00,56.0,42.7,29.88,SE,138,0.0,3.0,61,0.00,,,0.00,WeatherCatV1.13B119,2013-03-21 11:31:00,
2013-03-21 06:36:00,56.1,42.4,29.87,SSW,193,1.0,4.0,60,0.00,,,0.00,WeatherCatV1.13B119,2013-03-21 11:36:00,
2013-03-21 06:41:00,56.2,42.5,29.86,SSE,154,1.0,2.0,60,0.00,,,0.00,WeatherCatV1.13B119,2013-03-21 11:41:00,
2013-03-21 06:46:00,56.2,42.5,29.87,South,187,1.0,3.0,60,0.00,,,0.00,WeatherCatV1.13B119,2013-03-21 11:46:00,
2013-03-21 06:51:00,56.0,42.7,29.86,SSW,213,0.0,2.0,61,0.00,,,0.00,WeatherCatV1.13B119,2013-03-21 11:51:00,
2013-03-21 06:56:00,56.2,42.9,29.87,WNW,285,1.0,3.0,61,0.00,,,0.00,WeatherCatV1.13B119,2013-03-21 11:56:00,
2013-03-21 07:01:00,56.6,42.9,29.87,SE,141,1.0,2.0,60,0.00,,,0.00,WeatherCatV1.13B119,2013-03-21 12:01:00,
2013-03-21 07:06:00,56.7,43.4,29.86,ESE,112,0.0,1.0,61,0.00,,,0.00,WeatherCatV1.13B119,2013-03-21 12:06:00,
2013-03-21 07:11:00,56.7,43.4,29.87,SW,221,1.0,4.0,61,0.00,,,0.00,WeatherCatV1.13B119,2013-03-21 12:11:00,
2013-03-21 07:16:00,56.9,44.0,29.87,SW,229,2.0,4.0,62,0.00,,,0.00,WeatherCatV1.13B119,2013-03-21 12:16:00,
2013-03-21 07:21:00,57.0,44.5,29.87,West,278,1.0,3.0,63,0.00,,,0.00,WeatherCatV1.13B119,2013-03-21 12:21:00,
2013-03-21 07:26:00,57.1,45.4,29.86,WSW,237,2.0,3.0,65,0.00,,,0.00,WeatherCatV1.13B119,2013-03-21 12:26:00,
2013-03-21 07:31:00,57.0,45.8,29.86,SSE,147,2.0,3.0,66,0.00,,,0.00,WeatherCatV1.13B119,2013-03-21 12:31:00,
2013-03-21 07:36:00,56.9,46.4,29.86,West,269,2.0,7.0,68,0.00,,,0.00,WeatherCatV1.13B119,2013-03-21 12:36:00,
2013-03-21 07:41:00,56.8,46.7,29.87,East,100,2.0,2.0,69,0.00,,,0.00,WeatherCatV1.13B119,2013-03-21 12:41:00,
2013-03-21 07:46:00,56.7,47.0,29.87,SW,236,1.0,4.0,70,0.00,,,0.00,WeatherCatV1.13B119,2013-03-21 12:46:00,
2013-03-21 07:51:00,56.7,47.4,29.87,SE,143,0.0,4.0,71,0.00,,,0.00,WeatherCatV1.13B119,2013-03-21 12:51:00,
2013-03-21 07:56:00,56.8,48.2,29.86,SE,127,2.0,2.0,73,0.00,,,0.00,WeatherCatV1.13B119,2013-03-21 12:56:00,
2013-03-21 08:01:00,57.0,48.8,29.86,SW,221,1.0,4.0,74,0.00,,,0.00,WeatherCatV1.13B119,2013-03-21 13:01:00,
2013-03-21 08:06:00,57.2,49.3,29.86,SSW,207,0.0,3.0,75,0.00,,,0.00,WeatherCatV1.13B119,2013-03-21 13:06:00,
2013-03-21 08:11:00,57.3,49.8,29.86,SE,131,0.0,3.0,76,0.00,,,0.00,WeatherCatV1.13B119,2013-03-21 13:11:00,
2013-03-21 08:16:00,57.8,50.3,29.87,SE,132,1.0,2.0,76,0.00,,,0.00,WeatherCatV1.13B119,2013-03-21 13:16:00,
2013-03-21 08:21:00,58.4,50.9,29.86,SSE,157,1.0,4.0,76,0.00,,,0.00,WeatherCatV1.13B119,2013-03-21 13:21:00,
2013-03-21 08:26:00,58.8,51.2,29.86,SE,126,2.0,3.0,76,0.00,,,0.00,WeatherCatV1.13B119,2013-03-21 13:26:00,
2013-03-21 08:31:00,59.0,51.4,29.86,SE,139,1.0,7.0,76,0.00,,,0.00,WeatherCatV1.13B119,2013-03-21 13:31:00,
2013-03-21 08:36:00,59.4,51.8,29.86,East,101,0.0,5.0,76,0.00,,,0.00,WeatherCatV1.13B119,2013-03-21 13:36:00,
2013-03-21 08:41:00,59.9,52.0,29.86,SE,145,3.0,4.0,75,0.00,,,0.00,WeatherCatV1.13B119,2013-03-21 13:41:00,
2013-03-21 08:46:00,60.1,52.5,29.87,East,79,1.0,3.0,76,0.00,,,0.00,WeatherCatV1.13B119,2013-03-21 13:46:00,
2013-03-21 08:51:00,60.3,52.3,29.86,ESE,111,4.0,5.0,75,0.00,,,0.00,WeatherCatV1.13B119,2013-03-21 13:51:00,
2013-03-21 08:56:00,60.3,52.3,29.86,ESE,116,4.0,4.0,75,0.00,,,0.00,WeatherCatV1.13B119,2013-03-21 13:56:00,
2013-03-21 09:01:00,60.6,52.6,29.86,SE,131,0.0,5.0,75,0.00,,,0.00,WeatherCatV1.13B119,2013-03-21 14:01:00,
2013-03-21 09:06:00,61.0,52.6,29.86,SE,127,2.0,6.0,74,0.00,,,0.00,WeatherCatV1.13B119,2013-03-21 14:06:00,
2013-03-21 09:11:00,61.6,53.2,29.86,ESE,118,3.0,6.0,74,0.00,,,0.00,WeatherCatV1.13B119,2013-03-21 14:11:00,
2013-03-21 09:16:00,62.0,53.2,29.86,SSE,167,2.0,6.0,73,0.00,,,0.00,WeatherCatV1.13B119,2013-03-21 14:16:00,
2013-03-21 09:21:00,62.4,53.6,29.85,SSE,166,3.0,6.0,73,0.00,,,0.00,WeatherCatV1.13B119,2013-03-21 14:21:00,
2013-03-21 09:26:00,62.8,53.6,29.85,SE,141,5.0,10.0,72,0.00,,,0.00,WeatherCatV1.13B119,2013-03-21 14:26:00,
2013-03-21 09:31:00,63.1,53.9,29.85,ESE,119,2.0,7.0,72,0.00,,,0.00,WeatherCatV1.13B119,2013-03-21 14:31:00,
2013-03-21 09:36:00,63.4,53.8,29.85,ESE,122,11.0,11.0,71,0.00,,,0.00,WeatherCatV1.13B119,2013-03-21 14:36:00,
2013-03-21 09:41:00,63.7,54.1,29.85,ESE,103,4.0,9.0,71,0.00,,,0.00,WeatherCatV1.13B119,2013-03-21 14:41:00,
2013-03-21 09:46:00,63.9,54.3,29.85,SE,129,8.0,10.0,71,0.00,,,0.00,WeatherCatV1.13B119,2013-03-21 14:46:00,
2013-03-21 09:51:00,64.1,54.1,29.85,SE,136,5.0,11.0,70,0.00,,,0.00,WeatherCatV1.13B119,2013-03-21 14:51:00,
2013-03-21 09:56:00,63.7,53.7,29.85,East,101,4.0,12.0,70,0.00,,,0.00,WeatherCatV1.13B119,2013-03-21 14:56:00,
2013-03-21 10:01:00,63.6,54.0,29.86,SW,214,6.0,9.0,71,0.00,,,0.00,WeatherCatV1.13B119,2013-03-21 15:01:00,
2013-03-21 10:06:00,63.7,53.7,29.85,SE,141,9.0,14.0,70,0.00,,,0.00,WeatherCatV1.13B119,2013-03-21 15:06:00,
2013-03-21 10:11:00,64.1,53.7,29.85,SE,132,2.0,9.0,69,0.00,,,0.00,WeatherCatV1.13B119,2013-03-21 15:11:00,
2013-03-21 10:16:00,64.7,53.9,29.85,SE,143,4.0,14.0,68,0.00,,,0.00,WeatherCatV1.13B119,2013-03-21 15:16:00,
2013-03-21 10:21:00,65.1,54.3,29.84,NNE,13,3.0,6.0,68,0.00,,,0.00,WeatherCatV1.13B119,2013-03-21 15:21:00,
2013-03-21 10:26:00,65.0,54.2,29.84,South,169,6.0,9.0,68,0.00,,,0.00,WeatherCatV1.13B119,2013-03-21 15:26:00,
2013-03-21 10:31:00,64.6,54.2,29.84,SE,129,6.0,11.0,69,0.00,,,0.00,WeatherCatV1.13B119,2013-03-21 15:31:00,
2013-03-21 10:36:00,64.4,54.0,29.84,SE,127,2.0,13.0,69,0.00,,,0.00,WeatherCatV1.13B119,2013-03-21 15:36:00,
2013-03-21 10:41:00,64.5,54.5,29.84,SSE,165,5.0,7.0,70,0.00,,,0.00,WeatherCatV1.13B119,2013-03-21 15:41:00,
2013-03-21 10:46:00,64.7,54.7,29.84,WSW,245,1.0,6.0,70,0.00,,,0.00,WeatherCatV1.13B119,2013-03-21 15:46:00,
2013-03-21 10:51:00,64.7,54.7,29.83,ESE,120,4.0,7.0,70,0.00,,,0.00,WeatherCatV1.13B119,2013-03-21 15:51:00,
2013-03-21 10:56:00,64.8,54.8,29.83,SSE,150,7.0,9.0,70,0.00,,,0.00,WeatherCatV1.13B119,2013-03-21 15:56:00,
2013-03-21 11:01:00,64.8,54.8,29.83,SSE,149,3.0,11.0,70,0.00,,,0.00,WeatherCatV1.13B119,2013-03-21 16:01:00,
2013-03-21 11:06:00,65.1,54.7,29.83,SE,144,1.0,7.0,69,0.00,,,0.00,WeatherCatV1.13B119,2013-03-21 16:06:00,
2013-03-21 11:11:00,65.2,54.8,29.83,ESE,113,4.0,11.0,69,0.00,,,0.00,WeatherCatV1.13B119,2013-03-21 16:11:00,
2013-03-21 11:16:00,65.2,54.8,29.83,SE,128,5.0,10.0,69,0.00,,,0.00,WeatherCatV1.13B119,2013-03-21 16:16:00,
2013-03-21 11:21:00,65.4,55.0,29.82,ESE,113,8.0,8.0,69,0.00,,,0.00,WeatherCatV1.13B119,2013-03-21 16:21:00,
2013-03-21 11:26:00,65.6,54.7,29.82,East,89,5.0,10.0,68,0.00,,,0.00,WeatherCatV1.13B119,2013-03-21 16:26:00,
2013-03-21 11:31:00,65.8,54.9,29.82,SE,127,3.0,6.0,68,0.00,,,0.00,WeatherCatV1.13B119,2013-03-21 16:31:00,
2013-03-21 11:36:00,66.6,55.7,29.81,SE,141,5.0,7.0,68,0.00,,,0.00,WeatherCatV1.13B119,2013-03-21 16:36:00,
2013-03-21 11:41:00,66.8,55.1,29.81,SSE,151,7.0,8.0,66,0.00,,,0.00,WeatherCatV1.13B119,2013-03-21 16:41:00,
2013-03-21 11:46:00,66.7,55.4,29.81,ESE,108,6.0,8.0,67,0.00,,,0.00,WeatherCatV1.13B119,2013-03-21 16:46:00,
2013-03-21 11:51:00,67.0,55.3,29.81,SE,124,5.0,8.0,66,0.00,,,0.00,WeatherCatV1.13B119,2013-03-21 16:51:00,
2013-03-21 11:56:00,67.4,55.2,29.81,SSE,160,10.0,10.0,65,0.00,,,0.00,WeatherCatV1.13B119,2013-03-21 16:56:00,
2013-03-21 12:01:00,67.2,55.4,29.80,ESE,110,4.0,7.0,66,0.00,,,0.00,WeatherCatV1.13B119,2013-03-21 17:01:00,
2013-03-21 12:06:00,67.3,55.1,29.80,SSE,152,4.0,5.0,65,0.00,,,0.00,WeatherCatV1.13B119,2013-03-21 17:06:00,
2013-03-21 12:11:00,67.6,55.4,29.79,SSE,158,3.0,8.0,65,0.00,,,0.00,WeatherCatV1.13B119,2013-03-21 17:11:00,
2013-03-21 12:16:00,68.2,56.0,29.78,SE,130,4.0,6.0,65,0.00,,,0.00,WeatherCatV1.13B119,2013-03-21 17:16:00,
2013-03-21 12:21:00,68.7,55.6,29.78,SSE,161,7.0,10.0,63,0.00,,,0.00,WeatherCatV1.13B119,2013-03-21 17:21:00,
2013-03-21 12:26:00,68.9,55.3,29.78,SE,142,8.0,10.0,62,0.00,,,0.00,WeatherCatV1.13B119,2013-03-21 17:26:00,
2013-03-21 12:31:00,69.5,55.9,29.77,SSE,149,3.0,9.0,62,0.00,,,0.00,WeatherCatV1.13B119,2013-03-21 17:31:00,
2013-03-21 12:36:00,70.1,56.0,29.77,ESE,103,3.0,7.0,61,0.00,,,0.00,WeatherCatV1.13B119,2013-03-21 17:36:00,
2013-03-21 12:41:00,70.4,55.4,29.76,East,97,5.0,9.0,59,0.00,,,0.00,WeatherCatV1.13B119,2013-03-21 17:41:00,
2013-03-21 12:46:00,70.3,55.3,29.76,East,89,7.0,11.0,59,0.00,,,0.00,WeatherCatV1.13B119,2013-03-21 17:46:00,
2013-03-21 12:51:00,70.5,55.5,29.75,ESE,104,1.0,7.0,59,0.00,,,0.00,WeatherCatV1.13B119,2013-03-21 17:51:00,
2013-03-21 12:56:00,71.3,55.7,29.75,SSW,207,14.0,14.0,58,0.00,,,0.00,WeatherCatV1.13B119,2013-03-21 17:56:00,
2013-03-21 13:01:00,71.4,55.8,29.75,SE,127,6.0,9.0,58,0.00,,,0.00,WeatherCatV1.13B119,2013-03-21 18:01:00,
2013-03-21 13:06:00,71.6,55.1,29.75,SE,143,8.0,13.0,56,0.00,,,0.00,WeatherCatV1.13B119,2013-03-21 18:06:00,
2013-03-21 13:11:00,71.4,55.4,29.75,East,98,8.0,10.0,57,0.00,,,0.00,WeatherCatV1.13B119,2013-03-21 18:11:00,
2013-03-21 13:16:00,70.9,55.4,29.74,ESE,113,5.0,9.0,58,0.00,,,0.00,WeatherCatV1.13B119,2013-03-21 18:16:00,
2013-03-21 13:21:00,70.8,55.3,29.74,SSE,147,5.0,10.0,58,0.00,,,0.00,WeatherCatV1.13B119,2013-03-21 18:21:00,
2013-03-21 13:26:00,70.7,55.2,29.73,SE,141,9.0,12.0,58,0.00,,,0.00,WeatherCatV1.13B119,2013-03-21 18:26:00,
2013-03-21 13:31:00,70.9,55.4,29.73,ESE,107,6.0,8.0,58,0.00,,,0.00,WeatherCatV1.13B119,2013-03-21 18:31:00,
2013-03-21 13:36:00,71.2,55.7,29.73,ESE,119,5.0,12.0,58,0.00,,,0.00,WeatherCatV1.13B119,2013-03-21 18:36:00,
2013-03-21 13:41:00,71.3,55.7,29.72,SE,131,2.0,11.0,58,0.00,,,0.00,WeatherCatV1.13B119,2013-03-21 18:41:00,
2013-03-21 13:46:00,71.6,55.5,29.72,ESE,120,5.0,8.0,57,0.00,,,0.00,WeatherCatV1.13B119,2013-03-21 18:46:00,
2013-03-21 13:51:00,71.6,55.5,29.72,ESE,109,5.0,8.0,57,0.00,,,0.00,WeatherCatV1.13B119,2013-03-21 18:51:00,
2013-03-21 13:56:00,71.7,55.6,29.71,ESE,117,6.0,7.0,57,0.00,,,0.00,WeatherCatV1.13B119,2013-03-21 18:56:00,
2013-03-21 14:01:00,71.9,55.8,29.71,SE,142,2.0,6.0,57,0.00,,,0.00,WeatherCatV1.13B119,2013-03-21 19:01:00,
2013-03-21 14:06:00,71.7,55.6,29.70,SSE,151,3.0,9.0,57,0.00,,,0.00,WeatherCatV1.13B119,2013-03-21 19:06:00,
2013-03-21 14:11:00,71.6,55.5,29.70,ESE,110,10.0,12.0,57,0.00,,,0.00,WeatherCatV1.13B119,2013-03-21 19:11:00,
2013-03-21 14:16:00,71.8,55.7,29.69,SSE,164,2.0,6.0,57,0.00,,,0.00,WeatherCatV1.13B119,2013-03-21 19:16:00,
2013-03-21 14:21:00,72.2,55.6,29.69,SE,131,7.0,9.0,56,0.00,,,0.00,WeatherCatV1.13B119,2013-03-21 19:21:00,
2013-03-21 14:26:00,72.7,55.6,29.68,West,266,9.0,11.0,55,0.00,,,0.00,WeatherCatV1.13B119,2013-03-21 19:26:00,
2013-03-21 14:31:00,73.1,55.4,29.68,SE,126,2.0,6.0,54,0.00,,,0.00,WeatherCatV1.13B119,2013-03-21 19:31:00,
2013-03-21 14:36:00,73.5,54.8,29.68,ESE,119,1.0,8.0,52,0.00,,,0.00,WeatherCatV1.13B119,2013-03-21 19:36:00,
2013-03-21 14:41:00,73.9,55.1,29.68,WSW,243,6.0,9.0,52,0.00,,,0.00,WeatherCatV1.13B119,2013-03-21 19:41:00,
2013-03-21 14:46:00,74.2,54.9,29.67,SSW,207,5.0,11.0,51,0.00,,,0.00,WeatherCatV1.13B119,2013-03-21 19:46:00,
2013-03-21 14:51:00,74.5,55.7,29.67,SE,129,1.0,6.0,52,0.00,,,0.00,WeatherCatV1.13B119,2013-03-21 19:51:00,
2013-03-21 14:56:00,74.8,55.4,29.67,SSE,159,2.0,7.0,51,0.00,,,0.00,WeatherCatV1.13B119,2013-03-21 19:56:00,
2013-03-21 15:01:00,74.6,55.3,29.66,SSW,212,3.0,8.0,51,0.00,,,0.00,WeatherCatV1.13B119,2013-03-21 20:01:00,
2013-03-21 15:06:00,74.5,55.2,29.66,SSE,147,1.0,6.0,51,0.00,,,0.00,WeatherCatV1.13B119,2013-03-21 20:06:00,
2013-03-21 15:11:00,74.3,55.5,29.66,WSW,242,3.0,9.0,52,0.00,,,0.00,WeatherCatV1.13B119,2013-03-21 20:11:00,
2013-03-21 15:16:00,74.8,56.0,29.65,East,97,5.0,11.0,52,0.00,,,0.00,WeatherCatV1.13B119,2013-03-21 20:16:00,
2013-03-21 15:21:00,75.0,56.2,29.65,West,264,2.0,6.0,52,0.00,,,0.00,WeatherCatV1.13B119,2013-03-21 20:21:00,
2013-03-21 15:26:00,75.0,55.6,29.64,SSW,201,2.0,7.0,51,0.00,,,0.00,WeatherCatV1.13B119,2013-03-21 20:26:00,
2013-03-21 15:31:00,75.1,56.3,29.64,SE,126,6.0,11.0,52,0.00,,,0.00,WeatherCatV1.13B119,2013-03-21 20:31:00,
2013-03-21 15:36:00,75.0,56.2,29.64,SE,130,2.0,6.0,52,0.00,,,0.00,WeatherCatV1.13B119,2013-03-21 20:36:00,
2013-03-21 15:41:00,75.5,56.6,29.63,ESE,114,4.0,14.0,52,0.00,,,0.00,WeatherCatV1.13B119,2013-03-21 20:41:00,
2013-03-21 15:46:00,76.3,56.8,29.63,ESE,112,4.0,14.0,51,0.00,,,0.00,WeatherCatV1.13B119,2013-03-21 20:46:00,
2013-03-21 15:51:00,76.4,56.4,29.63,WSW,240,3.0,10.0,50,0.00,,,0.00,WeatherCatV1.13B119,2013-03-21 20:51:00,
2013-03-21 15:56:00,76.5,57.0,29.63,WSW,248,6.0,11.0,51,0.00,,,0.00,WeatherCatV1.13B119,2013-03-21 20:56:00,
2013-03-21 16:01:00,76.1,56.6,29.63,SE,136,4.0,5.0,51,0.00,,,0.00,WeatherCatV1.13B119,2013-03-21 21:01:00,
2013-03-21 16:06:00,76.0,56.5,29.62,East,96,7.0,9.0,51,0.00,,,0.00,WeatherCatV1.13B119,2013-03-21 21:06:00,
2013-03-21 16:11:00,75.6,56.7,29.62,ESE,112,3.0,10.0,52,0.00,,,0.00,WeatherCatV1.13B119,2013-03-21 21:11:00,
2013-03-21 16:16:00,76.8,57.3,29.62,SE,125,2.0,11.0,51,0.00,,,0.00,WeatherCatV1.13B119,2013-03-21 21:16:00,
2013-03-21 16:21:00,78.1,57.9,29.62,SE,129,8.0,8.0,50,0.00,,,0.00,WeatherCatV1.13B119,2013-03-21 21:21:00,
2013-03-21 16:26:00,78.1,56.8,29.62,ESE,121,6.0,8.0,48,0.00,,,0.00,WeatherCatV1.13B119,2013-03-21 21:26:00,
2013-03-21 16:30:00,77.5,56.8,29.62,SE,129,5.0,9.0,49,0.00,,,0.00,WeatherCatV1.13B119,2013-03-21 21:30:00,
2013-03-21 16:35:00,77.5,57.4,29.61,SE,135,5.0,10.0,50,0.00,,,0.00,WeatherCatV1.13B119,2013-03-21 21:35:00,
2013-03-21 16:40:00,77.5,57.4,29.61,SE,135,5.0,10.0,50,0.00,,,0.00,WeatherCatV1.13B119,2013-03-21 21:40:00,
2013-03-21 16:45:00,77.5,57.4,29.62,SE,135,5.0,11.0,50,0.00,,,0.00,WeatherCatV1.13B119,2013-03-21 21:45:00,
2013-03-21 16:50:00,77.5,57.4,29.62,SE,135,5.0,11.0,50,0.00,,,0.00,WeatherCatV1.13B119,2013-03-21 21:50:00,
2013-03-21 16:55:00,77.5,57.4,29.62,SE,135,5.0,11.0,50,0.00,,,0.00,WeatherCatV1.13B119,2013-03-21 21:55:00,
2013-03-21 17:00:00,77.5,57.4,29.62,SE,135,5.0,11.0,50,0.00,,,0.00,WeatherCatV1.13B119,2013-03-21 22:00:00,
2013-03-21 17:05:00,77.5,57.4,29.62,SE,135,5.0,11.0,50,0.00,,,0.00,WeatherCatV1.13B119,2013-03-21 22:05:00,
2013-03-21 17:10:00,77.5,57.4,29.62,SE,135,5.0,11.0,50,0.00,,,0.00,WeatherCatV1.13B119,2013-03-21 22:10:00,
2013-03-21 17:15:00,77.2,57.1,29.60,SE,135,5.0,13.0,50,0.00,,,0.00,WeatherCatV1.13B119,2013-03-21 22:15:00,
2013-03-21 17:20:00,77.2,57.1,29.60,SE,135,5.0,13.0,50,0.00,,,0.00,WeatherCatV1.13B119,2013-03-21 22:20:00,
2013-03-21 17:25:00,77.2,57.1,29.60,SE,135,5.0,13.0,50,0.00,,,0.00,WeatherCatV1.13B119,2013-03-21 22:25:00,
2013-03-21 17:30:00,77.2,57.1,29.60,SE,135,5.0,13.0,50,0.00,,,0.00,WeatherCatV1.13B119,2013-03-21 22:30:00,
2013-03-21 17:35:00,77.2,57.1,29.60,SE,135,5.0,13.0,50,0.00,,,0.00,WeatherCatV1.13B119,2013-03-21 22:35:00,
2013-03-21 17:40:00,77.2,57.1,29.60,SE,135,5.0,13.0,50,0.00,,,0.00,WeatherCatV1.13B119,2013-03-21 22:40:00,
2013-03-21 17:45:00,76.1,57.7,29.59,SE,135,4.0,15.0,53,0.00,,,0.00,WeatherCatV1.13B119,2013-03-21 22:45:00,
2013-03-21 17:50:00,76.1,57.7,29.59,SE,135,4.0,15.0,53,0.00,,,0.00,WeatherCatV1.13B119,2013-03-21 22:50:00,
2013-03-21 17:55:00,76.1,57.7,29.59,SE,135,4.0,15.0,53,0.00,,,0.00,WeatherCatV1.13B119,2013-03-21 22:55:00,
2013-03-21 18:00:00,76.1,57.7,29.59,SE,135,4.0,15.0,53,0.00,,,0.00,WeatherCatV1.13B119,2013-03-21 23:00:00,
2013-03-21 18:05:00,76.1,57.7,29.59,SE,135,4.0,15.0,53,0.00,,,0.00,WeatherCatV1.13B119,2013-03-21 23:05:00,
2013-03-21 18:10:00,76.1,57.7,29.59,SE,135,4.0,15.0,53,0.00,,,0.00,WeatherCatV1.13B119,2013-03-21 23:10:00,
2013-03-21 18:15:00,76.2,56.7,29.58,SE,135,5.0,13.0,51,0.00,,,0.00,WeatherCatV1.13B119,2013-03-21 23:15:00,
2013-03-21 18:20:00,76.2,56.7,29.58,SE,135,5.0,13.0,51,0.00,,,0.00,WeatherCatV1.13B119,2013-03-21 23:20:00,
2013-03-21 18:25:00,76.2,56.7,29.58,SE,135,5.0,13.0,51,0.00,,,0.00,WeatherCatV1.13B119,2013-03-21 23:25:00,
2013-03-21 18:30:00,76.2,56.7,29.58,SE,135,5.0,13.0,51,0.00,,,0.00,WeatherCatV1.13B119,2013-03-21 23:30:00,
2013-03-21 18:35:00,76.2,56.7,29.58,SE,135,5.0,13.0,51,0.00,,,0.00,WeatherCatV1.13B119,2013-03-21 23:35:00,
2013-03-21 18:40:00,76.2,56.7,29.58,SE,135,5.0,13.0,51,0.00,,,0.00,WeatherCatV1.13B119,2013-03-21 23:40:00,
2013-03-21 18:45:00,75.9,57.0,29.58,SW,225,4.0,12.0,52,0.00,,,0.00,WeatherCatV1.13B119,2013-03-21 23:45:00,
2013-03-21 18:50:00,75.9,57.0,29.58,SW,225,4.0,12.0,52,0.00,,,0.00,WeatherCatV1.13B119,2013-03-21 23:50:00,
2013-03-21 18:55:00,75.9,57.0,29.58,SW,225,4.0,12.0,52,0.00,,,0.00,WeatherCatV1.13B119,2013-03-21 23:55:00,
2013-03-21 19:00:00,75.9,57.0,29.58,SW,225,4.0,12.0,52,0.00,,,0.00,WeatherCatV1.13B119,2013-03-22 00:00:00,
2013-03-21 19:05:00,75.9,57.0,29.58,SW,225,4.0,12.0,52,0.00,,,0.00,WeatherCatV1.13B119,2013-03-22 00:05:00,
2013-03-21 19:10:00,75.9,57.0,29.58,SW,225,4.0,12.0,52,0.00,,,0.00,WeatherCatV1.13B119,2013-03-22 00:10:00,
2013-03-21 19:15:00,74.8,57.5,29.58,WSW,248,4.0,14.0,55,0.00,,,0.00,WeatherCatV1.13B119,2013-03-22 00:15:00,
2013-03-21 19:20:00,74.8,57.5,29.58,WSW,248,4.0,14.0,55,0.00,,,0.00,WeatherCatV1.13B119,2013-03-22 00:20:00,
2013-03-21 19:25:00,74.8,57.5,29.58,WSW,248,4.0,14.0,55,0.00,,,0.00,WeatherCatV1.13B119,2013-03-22 00:25:00,
2013-03-21 19:30:00,74.8,57.5,29.58,WSW,248,4.0,14.0,55,0.00,,,0.00,WeatherCatV1.13B119,2013-03-22 00:30:00,
2013-03-21 19:35:00,74.8,57.5,29.58,WSW,248,4.0,14.0,55,0.00,,,0.00,WeatherCatV1.13B119,2013-03-22 00:35:00,
2013-03-21 19:40:00,74.8,57.5,29.58,WSW,248,4.0,14.0,55,0.00,,,0.00,WeatherCatV1.13B119,2013-03-22 00:40:00,
2013-03-21 19:45:00,73.5,57.3,29.59,WSW,248,3.0,11.0,57,0.00,,,0.00,WeatherCatV1.13B119,2013-03-22 00:45:00,
2013-03-21 19:50:00,73.5,57.3,29.59,WSW,248,3.0,11.0,57,0.00,,,0.00,WeatherCatV1.13B119,2013-03-22 00:50:00,
2013-03-21 19:55:00,73.5,57.3,29.59,WSW,248,3.0,11.0,57,0.00,,,0.00,WeatherCatV1.13B119,2013-03-22 00:55:00,
2013-03-21 20:00:00,73.5,57.3,29.59,WSW,248,3.0,11.0,57,0.00,,,0.00,WeatherCatV1.13B119,2013-03-22 01:00:00,
2013-03-21 20:05:00,73.5,57.3,29.59,WSW,248,3.0,11.0,57,0.00,,,0.00,WeatherCatV1.13B119,2013-03-22 01:05:00,
2013-03-21 20:10:00,73.5,57.3,29.59,WSW,248,3.0,11.0,57,0.00,,,0.00,WeatherCatV1.13B119,2013-03-22 01:10:00,
2013-03-21 20:15:00,71.4,58.1,29.59,SE,134,1.0,2.0,63,0.00,,,0.00,WeatherCatV1.13B119,2013-03-22 01:15:00,
2013-03-21 20:20:00,71.2,57.9,29.60,SE,134,1.0,3.0,63,0.00,,,0.00,WeatherCatV1.13B119,2013-03-22 01:20:00,
2013-03-21 20:25:00,71.2,58.4,29.60,SE,131,1.0,2.0,64,0.00,,,0.00,WeatherCatV1.13B119,2013-03-22 01:25:00,
2013-03-21 20:30:00,71.1,58.3,29.60,SE,132,1.0,2.0,64,0.00,,,0.00,WeatherCatV1.13B119,2013-03-22 01:30:00,
2013-03-21 20:35:00,71.1,58.3,29.60,SE,134,1.0,2.0,64,0.00,,,0.00,WeatherCatV1.13B119,2013-03-22 01:35:00,
2013-03-21 20:40:00,71.0,58.2,29.60,SE,133,2.0,4.0,64,0.00,,,0.00,WeatherCatV1.13B119,2013-03-22 01:40:00,
2013-03-21 20:45:00,70.9,58.1,29.60,SE,130,2.0,3.0,64,0.00,,,0.00,WeatherCatV1.13B119,2013-03-22 01:45:00,
2013-03-21 20:50:00,70.8,58.4,29.60,SE,132,2.0,3.0,65,0.00,,,0.00,WeatherCatV1.13B119,2013-03-22 01:50:00,
2013-03-21 20:55:00,70.7,58.4,29.60,SE,131,2.0,4.0,65,0.00,,,0.00,WeatherCatV1.13B119,2013-03-22 01:55:00,
2013-03-21 21:00:00,70.5,58.2,29.60,SE,129,2.0,3.0,65,0.00,,,0.00,WeatherCatV1.13B119,2013-03-22 02:00:00,
2013-03-21 21:05:00,70.4,58.5,29.60,SE,133,2.0,3.0,66,0.00,,,0.00,WeatherCatV1.13B119,2013-03-22 02:05:00,
2013-03-21 21:10:00,70.2,58.3,29.60,SE,132,2.0,3.0,66,0.00,,,0.00,WeatherCatV1.13B119,2013-03-22 02:10:00,
2013-03-21 21:15:00,70.1,58.6,29.60,SE,132,2.0,3.0,67,0.00,,,0.00,WeatherCatV1.13B119,2013-03-22 02:15:00,
2013-03-21 21:20:00,70.0,58.5,29.61,SE,131,2.0,3.0,67,0.00,,,0.00,WeatherCatV1.13B119,2013-03-22 02:20:00,
2013-03-21 21:25:00,70.0,58.5,29.61,SE,132,3.0,5.0,67,0.00,,,0.00,WeatherCatV1.13B119,2013-03-22 02:25:00,
2013-03-21 21:30:00,69.9,58.8,29.61,SE,133,3.0,4.0,68,0.00,,,0.00,WeatherCatV1.13B119,2013-03-22 02:30:00,
2013-03-21 21:35:00,69.9,58.8,29.61,SE,131,3.0,8.0,68,0.00,,,0.00,WeatherCatV1.13B119,2013-03-22 02:35:00,
2013-03-21 21:40:00,69.8,58.7,29.61,SE,134,3.0,4.0,68,0.00,,,0.00,WeatherCatV1.13B119,2013-03-22 02:40:00,
2013-03-21 21:45:00,69.5,58.9,29.61,SE,131,3.0,4.0,69,0.00,,,0.00,WeatherCatV1.13B119,2013-03-22 02:45:00,
2013-03-21 21:50:00,69.4,59.2,29.61,SE,136,4.0,7.0,70,0.00,,,0.00,WeatherCatV1.13B119,2013-03-22 02:50:00,
2013-03-21 21:55:00,69.3,59.1,29.61,SE,132,4.0,5.0,70,0.00,,,0.00,WeatherCatV1.13B119,2013-03-22 02:55:00,
2013-03-21 22:00:00,69.1,59.3,29.61,SE,135,4.0,6.0,71,0.00,,,0.00,WeatherCatV1.13B119,2013-03-22 03:00:00,
2013-03-21 22:05:00,68.9,59.1,29.61,SE,130,3.0,7.0,71,0.00,,,0.00,WeatherCatV1.13B119,2013-03-22 03:05:00,
2013-03-21 22:10:00,68.9,59.5,29.61,SE,129,4.0,7.0,72,0.00,,,0.00,WeatherCatV1.13B119,2013-03-22 03:10:00,
2013-03-21 22:15:00,68.6,59.2,29.62,SE,132,4.0,4.0,72,0.00,,,0.00,WeatherCatV1.13B119,2013-03-22 03:15:00,
2013-03-21 22:20:00,68.4,59.4,29.62,SE,132,4.0,5.0,73,0.00,,,0.00,WeatherCatV1.13B119,2013-03-22 03:20:00,
2013-03-21 22:25:00,68.2,59.2,29.62,SE,139,4.0,8.0,73,0.00,,,0.00,WeatherCatV1.13B119,2013-03-22 03:25:00,
2013-03-21 22:30:00,68.0,59.4,29.62,SE,139,5.0,9.0,74,0.00,,,0.00,WeatherCatV1.13B119,2013-03-22 03:30:00,
2013-03-21 22:35:00,67.8,59.2,29.62,SE,130,5.0,6.0,74,0.00,,,0.00,WeatherCatV1.13B119,2013-03-22 03:35:00,
2013-03-21 22:40:00,67.6,59.4,29.62,SE,127,5.0,6.0,75,0.00,,,0.00,WeatherCatV1.13B119,2013-03-22 03:40:00,
2013-03-21 22:45:00,67.4,59.6,29.62,SE,126,4.0,6.0,76,0.00,,,0.00,WeatherCatV1.13B119,2013-03-22 03:45:00,
2013-03-21 22:50:00,67.2,59.4,29.62,SE,132,4.0,5.0,76,0.00,,,0.00,WeatherCatV1.13B119,2013-03-22 03:50:00,
2013-03-21 22:55:00,67.1,59.3,29.62,SE,127,4.0,8.0,76,0.00,,,0.00,WeatherCatV1.13B119,2013-03-22 03:55:00,
2013-03-21 23:00:00,67.0,59.5,29.62,SE,134,4.0,5.0,77,0.00,,,0.00,WeatherCatV1.13B119,2013-03-22 04:00:00,
2013-03-21 23:05:00,66.9,59.5,29.62,SE,127,4.0,6.0,77,0.00,,,0.00,WeatherCatV1.13B119,2013-03-22 04:05:00,
2013-03-21 23:10:00,66.7,59.6,29.63,SE,132,4.0,5.0,78,0.00,,,0.00,WeatherCatV1.13B119,2013-03-22 04:10:00,
2013-03-21 23:15:00,66.6,59.5,29.62,SE,130,3.0,5.0,78,0.00,,,0.00,WeatherCatV1.13B119,2013-03-22 04:15:00,
2013-03-21 23:20:00,66.4,59.3,29.62,SE,132,3.0,4.0,78,0.00,,,0.00,WeatherCatV1.13B119,2013-03-22 04:20:00,
2013-03-21 23:25:00,66.4,59.7,29.62,SE,136,3.0,7.0,79,0.00,,,0.00,WeatherCatV1.13B119,2013-03-22 04:25:00,
2013-03-21 23:30:00,66.3,59.6,29.62,SE,129,3.0,6.0,79,0.00,,,0.00,WeatherCatV1.13B119,2013-03-22 04:30:00,
2013-03-21 23:35:00,66.2,59.5,29.62,ESE,123,3.0,5.0,79,0.00,,,0.00,WeatherCatV1.13B119,2013-03-22 04:35:00,
2013-03-21 23:40:00,66.2,59.8,29.62,SE,130,3.0,5.0,80,0.00,,,0.00,WeatherCatV1.13B119,2013-03-22 04:40:00,
2013-03-21 23:45:00,66.1,59.7,29.61,SE,139,3.0,6.0,80,0.00,,,0.00,WeatherCatV1.13B119,2013-03-22 04:45:00,
2013-03-21 23:50:00,66.2,59.8,29.62,SE,139,3.0,8.0,80,0.00,,,0.00,WeatherCatV1.13B119,2013-03-22 04:50:00,
2013-03-21 23:55:00,66.2,59.8,29.61,SE,136,3.0,4.0,80,0.00,,,0.00,WeatherCatV1.13B119,2013-03-22 04:55:00,